Voltar ao catálogo

STARLINK-5100

AtivoComunicaçõesVLEO
NORAD 55495·PAYLOAD·🇺🇸 United States

Lançado Feb 2, 2023 de Cape Canaveral Space Force Station

Loading…

Próximas Passagens (próximas 24 horas)

TLE

AtualizadoSource: CelesTrak SupGP

Época: Sep 14, 2026, 22:07 UTC

1 55495C 23015AY  26257.92201389 -.00047722  00000+0 -17285-2 0  2570
2 55495  43.0028 332.8251 0001432 270.1958 131.1701 15.27601530    18

Acompanhe STARLINK-5100 em tempo real com AllMySat

Download on the App Store